Weather History for Seward, AK

Change the Weather History Date:

Thursday, February 2, 2012

  Actual Average Record
Temperature  
Mean Temperature 36 °F -  
Max Temperature 39 °F 30 °F 51 °F (1957)
Min Temperature 32 °F 20 °F -7 °F (1999)
Degree Days  
Heating Degree Days 29    
Moisture  
Dew Point 30 °F    
Average Humidity 80    
Maximum Humidity 93    
Minimum Humidity 60    
Precipitation  
Precipitation 0.31 in - - ()
Sea Level Pressure  
Sea Level Pressure 29.07 in    
Wind  
Wind Speed 20 mph (South)    
Max Wind Speed 37 mph    
Max Gust Speed 50 mph    
Visibility 7 miles    
Events Rain , Snow    
Averages and records for this station are not official NWS values.
T = Trace of Precipitation, MM = Missing Value Source: NWS Daily Summary

Daily Weather History Graph

Daily Weather History Graph

Search for Another Location

Airport:

Trip Planner

Search our weather history database for the weather conditions in past years. The results will help you decide how hot, cold, wet, or windy it might be!

Date:

Astronomy

Feb. 02, 2012 Rise Set
Actual Time 9:10 AM AKST 5:13 PM AKST
Civil Twilight 8:22 AM AKST 6:00 PM AKST
Nautical Twilight 7:32 AM AKST 6:51 PM AKST
Astronomical Twilight 6:43 AM AKST 7:40 PM AKST
Moon 11:52 AM AKST (2/2) 5:40 AM AKST (2/2)
Length of Visible Light 9h 37m
Length of Day
8h 03m
Waxing Gibbous, 75% of the Moon is Illuminated
Feb 2
Waxing Gibbous
Feb 7
Full
Feb 14
Last Quarter
Feb 21
New
Feb 29
First Quarter

Hourly Weather History & Observations

Time (AKST) Temp. Windchill Dew Point Humidity Pressure Visibility Wind Dir Wind Speed Gust Speed Precip Events Conditions
12:11 AM 33.8 °F 22.8 °F 30.2 °F 87% 28.71 in 2.0 mi South 18.4 mph 27.6 mph 0.04 in Snow Light Snow
12:18 AM 33.8 °F 22.8 °F 30.2 °F 87% 28.72 in 1.8 mi South 18.4 mph 27.6 mph 0.05 in Snow Light Snow
12:23 AM 33.8 °F 23.9 °F 30.2 °F 87% 28.73 in 3.0 mi South 15.0 mph - 0.06 in Snow Light Snow
12:44 AM 33.8 °F 26.4 °F 32.0 °F 93% 28.74 in 9.0 mi South 9.2 mph - 0.07 in   Overcast
12:53 AM 35.1 °F 23.0 °F 32.0 °F 89% 28.75 in 10.0 mi SSE 24.2 mph 29.9 mph 0.07 in   Overcast
1:02 AM 37.4 °F 27.8 °F 30.2 °F 75% 28.74 in 10.0 mi SSE 17.3 mph 25.3 mph N/A   Overcast
1:38 AM 35.6 °F 25.5 °F 33.8 °F 93% 28.76 in 4.0 mi South 17.3 mph 34.5 mph 0.02 in Snow Light Snow
1:41 AM 35.6 °F 27.5 °F 33.8 °F 93% 28.76 in 7.0 mi South 11.5 mph 32.2 mph 0.02 in Rain Light Rain
1:53 AM 37.0 °F 26.7 °F 34.0 °F 89% 28.78 in 10.0 mi SSE 19.6 mph 27.6 mph 0.02 in   Overcast
2:53 AM 37.0 °F 28.5 °F 34.0 °F 89% 28.82 in 7.0 mi South 13.8 mph 40.3 mph 0.01 in Snow Light Snow
3:53 AM 36.0 °F 23.7 °F 30.0 °F 79% 28.87 in 5.0 mi SSE 26.5 mph 34.5 mph 0.01 in Snow Light Snow
4:53 AM 37.9 °F 24.6 °F 27.0 °F 65% 28.90 in 10.0 mi SSE 36.8 mph 42.6 mph 0.00 in   Mostly Cloudy
5:53 AM 37.9 °F 25.9 °F 26.1 °F 62% 28.93 in 9.0 mi SSE 28.8 mph 41.4 mph 0.00 in   Overcast
6:53 AM 39.0 °F 27.4 °F 27.0 °F 62% 28.95 in 10.0 mi SSE 28.8 mph 43.7 mph 0.00 in   Overcast
7:30 AM 35.6 °F 25.2 °F 30.2 °F 81% 28.95 in 4.0 mi South 18.4 mph 31.1 mph 0.03 in Snow Light Snow
7:35 AM 35.6 °F 22.7 °F 30.2 °F 81% 28.98 in 1.8 mi South 28.8 mph 44.9 mph 0.04 in Snow Light Snow
7:40 AM 33.8 °F 20.3 °F 30.2 °F 87% 28.99 in 1.0 mi South 28.8 mph 44.9 mph 0.05 in Snow Light Snow
7:53 AM 34.0 °F 23.0 °F 30.9 °F 89% 28.99 in 2.5 mi South 18.4 mph 34.5 mph 0.07 in Snow Light Snow
8:00 AM 35.6 °F 24.8 °F 30.2 °F 81% 28.99 in 7.0 mi South 19.6 mph 34.5 mph 0.00 in Snow Light Snow
8:16 AM 35.6 °F 25.2 °F 32.0 °F 87% 29.01 in 8.0 mi South 18.4 mph 35.7 mph 0.00 in Snow Light Snow
8:35 AM 37.4 °F 24.8 °F 26.6 °F 65% 29.02 in 10.0 mi SSE 31.1 mph 41.4 mph 0.00 in   Overcast
8:53 AM 37.9 °F 25.5 °F 28.0 °F 68% 29.03 in 10.0 mi SSE 31.1 mph 49.5 mph 0.00 in Rain Light Rain
9:53 AM 39.0 °F 27.0 °F 26.1 °F 60% 29.07 in 10.0 mi SSE 31.1 mph 46.0 mph 0.00 in   Overcast
10:53 AM 39.0 °F 30.3 °F 28.9 °F 67% 29.10 in 9.0 mi South 16.1 mph 39.1 mph 0.00 in   Overcast
11:53 AM 39.0 °F 27.0 °F 28.0 °F 65% 29.11 in 10.0 mi SSE 31.1 mph 46.0 mph 0.01 in   Overcast
12:25 PM 35.6 °F 24.5 °F 30.2 °F 81% 29.14 in 1.5 mi South 20.7 mph 42.6 mph 0.01 in Snow Light Snow
12:29 PM 33.8 °F 22.5 °F 30.2 °F 87% 29.13 in 0.8 mi South 19.6 mph 42.6 mph 0.02 in Snow Light Snow
12:34 PM 33.8 °F 22.8 °F 30.2 °F 87% 29.13 in 1.0 mi South 18.4 mph 42.6 mph 0.03 in Snow Light Snow
12:39 PM 35.6 °F 22.5 °F 32.0 °F 87% 29.13 in 1.8 mi South 29.9 mph 42.6 mph 0.04 in Snow Light Snow
12:43 PM 35.6 °F 22.7 °F 32.0 °F 87% 29.13 in 3.0 mi South 28.8 mph 42.6 mph 0.04 in Snow Light Snow
12:53 PM 35.1 °F 21.8 °F 32.0 °F 89% 29.14 in 5.0 mi South 29.9 mph 36.8 mph 0.04 in Snow Light Snow
1:11 PM 35.6 °F 24.2 °F 30.2 °F 81% 29.14 in 6.0 mi South 21.9 mph 41.4 mph 0.00 in Snow Light Snow
1:32 PM 37.4 °F 25.6 °F 28.4 °F 70% 29.15 in 10.0 mi South 26.5 mph 47.2 mph 0.00 in   Overcast
1:53 PM 37.9 °F 27.3 °F 28.9 °F 70% 29.15 in 10.0 mi South 21.9 mph 34.5 mph 0.00 in   Overcast
2:07 PM 35.6 °F 25.9 °F 30.2 °F 81% 29.17 in 2.5 mi South 16.1 mph 36.8 mph 0.02 in Snow Light Snow
2:18 PM 35.6 °F 24.2 °F 30.2 °F 81% 29.16 in 8.0 mi South 21.9 mph 35.7 mph 0.02 in Snow Light Snow
2:49 PM 37.4 °F 27.8 °F 30.2 °F 75% 29.17 in 10.0 mi South 17.3 mph 35.7 mph 0.02 in   Overcast
2:53 PM 37.0 °F 27.7 °F 30.0 °F 76% 29.17 in 10.0 mi South 16.1 mph 32.2 mph 0.02 in   Overcast
3:29 PM 35.6 °F 23.0 °F 28.4 °F 75% 29.17 in 2.5 mi SSE 27.6 mph 36.8 mph 0.01 in Snow Light Snow
3:38 PM 35.6 °F 25.9 °F 30.2 °F 81% 29.18 in 4.0 mi South 16.1 mph 35.7 mph 0.01 in Snow Light Snow
3:53 PM 36.0 °F 24.4 °F 30.0 °F 79% 29.18 in 10.0 mi South 23.0 mph 32.2 mph 0.01 in   Overcast
4:15 PM 35.6 °F 23.0 °F 30.2 °F 81% 29.18 in 8.0 mi SSW 27.6 mph 40.3 mph 0.01 in Snow Light Snow
4:53 PM 36.0 °F 24.4 °F 28.9 °F 76% 29.19 in 9.0 mi South 23.0 mph 35.7 mph 0.01 in   Overcast
5:13 PM 35.6 °F 25.5 °F 28.4 °F 75% 29.21 in 6.0 mi South 17.3 mph 29.9 mph 0.00 in Snow Light Snow
5:53 PM 34.0 °F 24.2 °F 30.9 °F 89% 29.22 in 4.0 mi South 15.0 mph 23.0 mph 0.01 in Snow Light Snow
6:08 PM 33.8 °F 23.9 °F 30.2 °F 87% 29.22 in 2.5 mi South 15.0 mph 21.9 mph 0.01 in Snow Light Snow
6:20 PM 33.8 °F 25.8 °F 30.2 °F 87% 29.23 in 1.5 mi South 10.4 mph - 0.03 in Snow Light Snow
6:28 PM 33.8 °F 28.6 °F 30.2 °F 87% 29.22 in 3.0 mi Variable 5.8 mph 16.1 mph 0.04 in Snow Light Snow
6:42 PM 35.6 °F 25.5 °F 28.4 °F 75% 29.22 in 10.0 mi SSW 17.3 mph - 0.04 in   Overcast
6:51 PM 35.6 °F 24.0 °F 28.4 °F 75% 29.22 in 10.0 mi SSW 23.0 mph 31.1 mph 0.04 in   Overcast
6:53 PM 36.0 °F 26.0 °F 28.9 °F 76% 29.23 in 10.0 mi SSW 17.3 mph 31.1 mph 0.04 in   Overcast
7:29 PM 33.8 °F 22.8 °F 30.2 °F 87% 29.23 in 4.0 mi SSW 18.4 mph 25.3 mph 0.00 in Snow Light Snow
7:46 PM 35.6 °F 25.2 °F 30.2 °F 81% 29.22 in 6.0 mi SSW 18.4 mph 24.2 mph 0.00 in Snow Light Snow
7:53 PM 34.0 °F 23.0 °F 28.9 °F 82% 29.23 in 5.0 mi SSW 18.4 mph 24.2 mph 0.00 in Snow Light Snow
8:53 PM 35.1 °F 27.9 °F 30.0 °F 82% 29.22 in 9.0 mi South 9.2 mph - 0.00 in Snow Light Snow
9:19 PM 35.6 °F 26.6 °F 28.4 °F 75% 29.21 in 9.0 mi SSW 13.8 mph - 0.00 in   Mostly Cloudy
9:27 PM 35.6 °F 28.6 °F 28.4 °F 75% 29.21 in 10.0 mi SSW 9.2 mph - 0.00 in   Mostly Cloudy
9:53 PM 34.0 °F 29.8 °F 28.9 °F 82% 29.20 in 10.0 mi ENE 4.6 mph - 0.00 in   Mostly Cloudy
10:53 PM 33.1 °F 27.7 °F 30.0 °F 89% 29.19 in 10.0 mi North 5.8 mph - N/A   Overcast
11:53 PM 32.0 °F 25.6 °F 28.9 °F 88% 29.15 in 10.0 mi North 6.9 mph - N/A   Mostly Cloudy